[[{"header":{"parameterUnit":"m.s-1","parameterCategory":1,"la1":30.2991,"la2":30.254,"lo1":-89.0895,"lo2":-89.0444,"dy":0.0017,"dx":0.0017,"nx":28,"ny":28,"refTime":"2023-08-03T21:00:00:Z","depth":0,"parameterNumber":2,"parameterNumberName":"U-component_of_WINDS"},"data":[0,0,0,0,0,0,0,0,0,0,0,0,0,0,0,0,0,0,0,0,0,0,0,0,0,0,0,0,0,0,0,0,0,0,0,0,0,0,0,0,0,0,0,0,0,0,0,0,0,0,0,0,0,0,0,0,0,0,2.2497,2.2498,0,2.2654,2.2656,2.2658,2.2688,2.2686,2.2685,2.2684,2.285,2.2855,2.2861,0,0,0,0,0,0,0,0,0,0,0,0,0,2.2228,2.2233,2.2497,2.2499,2.2501,2.2654,2.2656,2.2658,2.2688,2.2686,2.2685,2.2683,2.2848,2.2855,2.2862,0,0,0,0,0,0,0,0,0,0,0,0,0,2.2361,2.2234,2.2496,2.2534,2.2539,2.2653,2.2656,2.2659,2.2688,2.2686,2.2684,2.2683,2.2846,2.2854,2.2862,2.2952,0,0,2.2888,2.2892,0,0,0,0,0,0,0,0,2.2353,2.2371,2.2526,2.2531,2.2537,2.2649,2.2622,2.2757,2.2689,2.2632,2.2684,2.2682,2.2785,2.2798,2.2832,2.296,2.2967,2.2889,2.2894,2.2898,2.29,0,0,0,0,0,0,0,2.2344,2.2364,2.2559,2.2529,2.2535,2.2545,2.2561,2.2648,2.2717,2.2636,2.2639,2.2657,2.2788,2.2824,2.2836,2.297,2.2889,2.2896,2.2901,2.2905,2.3183,2.3185,0,0,0,0,0,0,2.2327,2.2356,2.2554,2.2564,2.2438,2.2551,2.257,2.2615,2.2716,2.273,2.2658,2.2658,2.2811,2.2826,2.2842,2.2957,2.2897,2.2905,2.291,2.318,2.3183,2.3186,0,0,0,0,0,0,2.2322,2.2345,2.2548,2.2461,2.2487,2.2558,2.2608,2.2619,2.2656,2.2733,2.2746,2.2682,2.281,2.283,2.2925,2.2963,2.2909,2.2917,2.3178,2.3181,2.3184,2.3184,0,0,0,0,0,0,2.2314,2.2342,2.2376,2.2461,2.2492,2.2626,2.2611,2.2624,2.2669,2.267,2.2759,2.2772,2.281,2.2912,2.2933,2.2973,2.2923,2.3175,2.3179,2.3183,2.3181,2.3188,2.3193,0,0,0,0,0,2.2304,2.237,2.2377,2.2401,2.2535,2.2628,2.2646,2.2687,2.2672,2.2708,2.2758,2.2769,2.2954,2.2922,2.2946,2.2989,2.3172,2.3178,2.3183,2.3179,2.3186,2.3193,0,0,0,0,0,0,2.2289,2.2382,2.2391,2.2486,2.2549,2.2633,2.2679,2.2693,2.2762,2.276,2.281,2.2829,2.2922,2.2965,2.2926,2.3083,2.3063,2.3073,2.3052,2.3059,2.3065,2.3054,2.293,0,0,0,0,0,2.2296,2.2362,2.2441,2.2518,2.2548,2.2608,2.265,2.2676,2.2744,2.2771,2.2828,2.2894,2.2968,2.3016,2.3087,2.3187,2.3209,2.3229,2.3234,2.3238,2.3248,2.3307,2.3317,2.3203,2.3203,2.3203,0,0,2.2313,2.2372,2.2411,2.2516,2.2568,2.2638,2.263,2.2704,2.2757,2.2783,2.2876,2.292,2.2998,2.3096,2.3142,2.3134,2.3284,2.3245,2.3248,2.3255,2.3313,2.3324,2.3334,2.3207,2.3206,2.3205,0,0,2.238,2.2429,2.25,2.2552,2.263,2.2669,2.2686,2.2768,2.2798,2.2892,2.2913,2.2978,2.3103,2.3158,2.3203,2.3291,2.3306,2.3313,2.3344,2.3401,2.341,2.3418,2.3453,2.3464,2.3322,2.3322,2.3322,0,2.2391,2.2495,2.2535,2.2608,2.2655,2.268,2.2754,2.2802,2.29,2.2933,2.2922,2.3081,2.3135,2.3248,2.327,2.3304,2.3327,2.3305,2.3405,2.3414,2.3422,2.3456,2.3468,2.3322,2.3322,2.3322,2.3322,0,2.2507,2.258,2.2627,2.272,2.2772,2.2845,2.2898,2.2946,2.2968,2.3009,2.3106,2.3171,2.3258,2.3286,2.3308,2.3403,2.3396,2.3394,2.3376,2.3433,2.3466,2.3479,2.3323,2.3323,2.3323,2.3323,0,0,2.257,2.2684,2.2701,2.2745,2.2833,2.289,2.2965,2.3049,2.3091,2.3157,2.3223,2.3329,2.3328,2.3379,2.3407,2.3457,2.3526,2.345,2.3452,2.3464,2.3639,2.3641,2.3655,2.3535,2.3538,2.354,2.3633,0,2.265,2.2783,2.2821,2.2935,2.3003,2.3028,2.3094,2.3156,2.3197,2.3263,2.3308,2.3383,2.3375,2.3406,2.3456,2.3507,2.3563,2.3501,2.3601,2.3604,2.3583,2.3672,2.3675,2.376,2.3646,2.3648,2.3649,0,2.2761,2.2829,2.2948,2.3029,2.306,2.3118,2.3199,2.326,2.3332,2.3358,2.3415,2.3439,2.3521,2.3496,2.3611,2.3569,2.3612,2.3643,2.3647,2.3661,2.3632,2.3691,2.3788,2.3801,2.3669,2.3668,2.3666,0,2.2798,2.292,2.3008,2.3044,2.3139,2.318,2.3222,2.3292,2.334,2.3411,2.3444,2.3523,2.3568,2.363,2.3677,2.3653,2.3789,2.3767,2.3816,2.3815,2.3845,2.3843,2.3954,2.3868,2.3868,2.3868,2.3867,0,2.2885,2.2958,2.3026,2.3081,2.3164,2.3208,2.329,2.3333,2.3395,2.3461,2.3487,2.3548,2.3604,2.3673,2.371,2.3801,2.3821,2.3846,2.3856,2.3846,2.3843,2.3877,2.3873,2.3871,2.387,2.387,2.3869,0,2.2942,2.299,2.3088,2.317,2.3193,2.3251,2.3323,2.3378,2.3419,2.3501,2.3523,2.3589,2.3672,2.3723,2.3829,2.3853,2.3955,2.3961,2.3931,2.3936,2.3983,2.3979,2.4121,2.4143,2.4039,2.404,2.4041,0,2.2996,2.3053,2.3141,2.3185,2.3227,2.3299,2.3348,2.3394,2.3445,2.3532,2.3577,2.3661,2.3731,2.3863,2.3922,2.4003,2.4013,2.4057,2.4026,2.4015,2.4018,2.4015,2.4022,2.4064,2.4064,2.4065,2.4066,0,2.3087,2.3108,2.3177,2.3255,2.3313,2.3377,2.3441,2.3477,2.3534,2.359,2.3674,2.3728,2.3836,2.392,2.4007,2.4053,2.4071,2.4075,2.4091,2.4083,2.4064,2.4078,2.3948,2.4072,2.4071,2.4071,2.4071,2.407,2.3146,2.3199,2.3269,2.3346,2.3399,2.3458,2.3515,2.3562,2.3633,2.3723,2.3746,2.3835,2.3908,2.4026,2.4073,2.4146,2.414,2.4162,2.4169,2.4174,2.4177,2.405,2.4161,2.4161,2.4161,2.4161,2.4161,0,2.3241,2.3288,2.3358,2.3446,2.3507,2.3515,2.3587,2.3638,2.3716,2.3781,2.3849,2.3948,2.403,2.4094,2.4179,2.4225,2.4235,2.4246,2.4245,2.4256,2.4176,2.4155,2.4237,2.4237,2.4237,2.4236,2.4236,2.4236,2.3298,2.3388,2.3418,2.3535,2.3582,2.3668,2.3709,2.3765,2.3817,2.3925,2.3993,2.4034,2.41,2.419,2.4267,2.4284,2.4316,2.4326,2.4345,2.4269,2.4261,2.4253,2.4234,2.4331,2.4331,2.4419,2.442,2.4421]},{"header":{"parameterUnit":"m.s-1","parameterCategory":1,"la1":30.2991,"la2":30.254,"lo1":-89.0895,"lo2":-89.0444,"dy":0.0017,"dx":0.0017,"nx":28,"ny":28,"refTime":"2023-08-03T21:00:00:Z","depth":0,"parameterNumber":3,"parameterNumberName":"V-component_of_WINDS"},"data":[0,0,0,0,0,0,0,0,0,0,0,0,0,0,0,0,0,0,0,0,0,0,0,0,0,0,0,0,0,0,0,0,0,0,0,0,0,0,0,0,0,0,0,0,0,0,0,0,0,0,0,0,0,0,0,0,0,0,0.7158,0.7159,0,0.7225,0.7226,0.7227,0.7229,0.7229,0.7228,0.7227,0.7296,0.7298,0.7301,0,0,0,0,0,0,0,0,0,0,0,0,0,0.7029,0.7031,0.7158,0.7159,0.7159,0.7225,0.7226,0.7227,0.7229,0.7229,0.7228,0.7227,0.7295,0.7298,0.7301,0,0,0,0,0,0,0,0,0,0,0,0,0,0.7089,0.7032,0.7158,0.7169,0.717,0.7225,0.7226,0.7227,0.723,0.7228,0.7227,0.7226,0.7294,0.7297,0.7301,0.7349,0,0,0.7313,0.7315,0,0,0,0,0,0,0,0,0.7086,0.7094,0.7166,0.7168,0.717,0.7218,0.7206,0.7268,0.723,0.7207,0.7227,0.7226,0.7271,0.7276,0.7291,0.7352,0.7355,0.7313,0.7316,0.7317,0.7318,0,0,0,0,0,0,0,0.7082,0.7091,0.7184,0.7167,0.717,0.7169,0.7177,0.7217,0.7245,0.7209,0.7209,0.7217,0.7271,0.7288,0.7293,0.7356,0.7313,0.7317,0.7319,0.7321,0.7455,0.7457,0,0,0,0,0,0,0.7075,0.7088,0.7182,0.7186,0.7124,0.7173,0.7181,0.7204,0.7244,0.7249,0.7218,0.7217,0.7282,0.7289,0.7296,0.7352,0.7317,0.7321,0.7323,0.7454,0.7456,0.7457,0,0,0,0,0,0,0.7073,0.7084,0.718,0.7137,0.7149,0.7176,0.7202,0.7206,0.7222,0.7251,0.7256,0.723,0.7281,0.729,0.7335,0.7354,0.7323,0.7326,0.7453,0.7455,0.7456,0.7466,0,0,0,0,0,0,0.7069,0.7083,0.7102,0.7138,0.7152,0.7219,0.7203,0.7208,0.7229,0.7228,0.7264,0.7269,0.7281,0.7329,0.7339,0.7359,0.7329,0.7451,0.7454,0.7456,0.7464,0.7468,0.7471,0,0,0,0,0,0.7064,0.7103,0.7103,0.7115,0.7176,0.722,0.7228,0.7241,0.723,0.7249,0.7267,0.7267,0.735,0.7334,0.7345,0.7366,0.745,0.7453,0.7456,0.7462,0.7467,0.7471,0,0,0,0,0,0,0.707,0.7108,0.7109,0.716,0.7187,0.722,0.7245,0.7247,0.7277,0.7275,0.729,0.7298,0.7342,0.7359,0.7339,0.7412,0.7399,0.7404,0.74,0.7405,0.7408,0.7403,0.7332,0,0,0,0,0,0.7077,0.711,0.7141,0.7183,0.7197,0.7218,0.7238,0.7246,0.7274,0.7285,0.7307,0.7334,0.7365,0.7386,0.7417,0.7466,0.7472,0.7486,0.749,0.7492,0.7496,0.752,0.7526,0.7466,0.7466,0.7466,0,0,0.7093,0.7117,0.7137,0.7185,0.7207,0.7239,0.7228,0.7263,0.7287,0.729,0.7333,0.735,0.7381,0.7427,0.7448,0.7442,0.7514,0.7496,0.7498,0.7501,0.7524,0.7529,0.7534,0.7468,0.7468,0.7468,0,0,0.7137,0.716,0.7196,0.7217,0.7249,0.7263,0.7271,0.7304,0.7315,0.7358,0.736,0.7388,0.7444,0.7464,0.7482,0.753,0.753,0.754,0.7558,0.7581,0.7586,0.759,0.7605,0.761,0.7544,0.7544,0.7544,0,0.7152,0.7201,0.7214,0.7249,0.7268,0.7272,0.7307,0.7327,0.7368,0.7381,0.7373,0.744,0.7462,0.7511,0.7522,0.7537,0.7546,0.7536,0.7584,0.7588,0.7593,0.7607,0.7612,0.7544,0.7544,0.7544,0.7544,0,0.7217,0.725,0.7275,0.7313,0.7336,0.7371,0.7388,0.7409,0.7414,0.7427,0.7469,0.7495,0.7529,0.7542,0.7548,0.7591,0.7586,0.7581,0.7567,0.7599,0.7612,0.7618,0.7546,0.7545,0.7545,0.7545,0,0,0.7268,0.731,0.7319,0.7335,0.7369,0.7395,0.7429,0.7462,0.7478,0.7506,0.7533,0.7578,0.7573,0.7593,0.7601,0.7621,0.7653,0.7613,0.7614,0.7618,0.7699,0.7702,0.7708,0.7654,0.7655,0.7656,0.7696,0,0.7314,0.7374,0.7385,0.7437,0.7467,0.7469,0.7498,0.7521,0.7534,0.756,0.7575,0.7605,0.7598,0.7609,0.7629,0.7645,0.767,0.7643,0.7678,0.7679,0.7669,0.7715,0.7719,0.7755,0.7702,0.7703,0.7703,0,0.7377,0.7404,0.7458,0.7485,0.7498,0.7524,0.7553,0.7579,0.7604,0.7612,0.7633,0.7637,0.767,0.7655,0.7699,0.7681,0.7695,0.7705,0.7706,0.771,0.7692,0.7718,0.7768,0.7773,0.7712,0.7711,0.7711,0,0.7405,0.7456,0.7494,0.7508,0.7541,0.7558,0.7573,0.7597,0.7615,0.7641,0.7652,0.7681,0.7697,0.7719,0.7731,0.7719,0.7773,0.776,0.7779,0.7778,0.779,0.7789,0.7841,0.7802,0.7801,0.7801,0.7801,0,0.7455,0.7488,0.7507,0.753,0.7566,0.7577,0.7612,0.7626,0.7647,0.7672,0.7676,0.7699,0.7714,0.7738,0.7748,0.7781,0.7789,0.7795,0.7797,0.7794,0.7793,0.7803,0.78,0.7803,0.7803,0.7802,0.7802,0,0.7493,0.7508,0.7549,0.7576,0.7583,0.7608,0.7631,0.7653,0.7665,0.7696,0.7704,0.7723,0.7751,0.7765,0.7802,0.7807,0.7845,0.7846,0.7836,0.7837,0.7854,0.7852,0.7914,0.7922,0.7878,0.7879,0.7879,0,0.7523,0.7548,0.7577,0.7594,0.7608,0.7636,0.7653,0.7665,0.7683,0.7712,0.773,0.7759,0.7782,0.7828,0.7844,0.7871,0.7871,0.7891,0.7876,0.7871,0.7869,0.7867,0.7868,0.7894,0.7894,0.7895,0.7895,0,0.7574,0.7579,0.7605,0.7632,0.7653,0.7676,0.7698,0.7711,0.7725,0.7745,0.7775,0.7793,0.7828,0.7856,0.7883,0.7897,0.7898,0.79,0.7905,0.7902,0.7895,0.7897,0.7842,0.7898,0.7898,0.7898,0.7898,0.7897,0.7608,0.7629,0.7652,0.7679,0.7696,0.7716,0.7737,0.775,0.7775,0.7805,0.781,0.784,0.7861,0.7898,0.7912,0.7935,0.793,0.7939,0.7941,0.7943,0.7942,0.7892,0.794,0.794,0.794,0.794,0.794,0,0.7657,0.7671,0.7697,0.7726,0.7747,0.7746,0.7769,0.7786,0.7813,0.7833,0.7855,0.7887,0.7913,0.793,0.7956,0.7971,0.7972,0.7977,0.7976,0.7978,0.7946,0.7938,0.7976,0.7976,0.7976,0.7976,0.7976,0.7976,0.7685,0.772,0.7727,0.7769,0.7783,0.7812,0.7825,0.7842,0.7858,0.7893,0.7914,0.7925,0.7943,0.797,0.7993,0.7997,0.8006,0.8011,0.8015,0.7985,0.7981,0.7977,0.7969,0.8013,0.8013,0.8045,0.8045,0.8045]}]]